Waterbury, CT

11:10 PM EDT on September 25, 2016 (GMT -0400)
Waterbury-Oxford

Weather History for KOXC - February, 2013

Change the Weather History Date:

Wednesday, February 6, 2013

  Actual Average Record
Temperature  
Mean Temperature 28 °F -  
Max Temperature 35 °F 34 °F 51 °F (2008)
Min Temperature 21 °F 19 °F 3 °F (2015)
Degree Days  
Heating Degree Days 37    
Moisture  
Dew Point 14 °F    
Average Humidity 62    
Maximum Humidity 80    
Minimum Humidity 33    
Precipitation  
Precipitation 0.00 in - - ()
Sea Level Pressure  
Sea Level Pressure 30.06 in    
Wind  
Wind Speed 3 mph (NW)    
Max Wind Speed 12 mph    
Max Gust Speed 21 mph    
Visibility 7 miles    
Events      
Averages and records for this station are not official NWS values.
T = Trace of Precipitation, MM = Missing Value Source: NWS Daily Summary

Daily Weather History Graph

Daily Weather History Graph

Search for Another Location

Airport or City:

Trip Planner

Search our weather history database for the weather conditions in past years. The results will help you decide how hot, cold, wet, or windy it might be!

Date:

Astronomy

Feb. 06, 2013 Rise Set
Actual Time 6:58 AM EST 5:15 PM EST
Civil Twilight 6:29 AM EST 5:44 PM EST
Nautical Twilight 5:56 AM EST 6:17 PM EST
Astronomical Twilight 5:24 AM EST 6:49 PM EST
Moon 3:40 AM EST (2/6) 1:29 PM EST (2/6)
Length of Visible Light 11h 14m
Length of Day
10h 16m
Waning Crescent, 17% of the Moon is Illuminated
Feb 6
Waning Crescent
Feb 10
New
Feb 17
First Quarter
Feb 25
Full
Mar 4
Last Quarter

Hourly Weather History & Observations

Time (EST) Temp. Windchill Dew Point Humidity Pressure Visibility Wind Dir Wind Speed Gust Speed Precip Events Conditions
12:15 AM 24.8 °F - 19.4 °F 80% 29.90 in 7.0 mi Calm Calm - N/A   Overcast
12:35 AM 24.8 °F - 19.4 °F 80% 29.91 in 6.0 mi Calm Calm - N/A   Overcast
12:55 AM 24.8 °F - 19.4 °F 80% 29.91 in 6.0 mi Calm Calm - N/A   Overcast
1:15 AM 24.8 °F - 19.4 °F 80% 29.90 in 5.0 mi Calm Calm - N/A   Overcast
1:35 AM 24.8 °F - 19.4 °F 80% 29.90 in 3.0 mi Calm Calm - N/A   Overcast
2:15 AM 24.8 °F - 19.4 °F 80% 29.89 in 5.0 mi Calm Calm - N/A   Overcast
2:35 AM 24.8 °F - 19.4 °F 80% 29.90 in 5.0 mi Calm Calm - N/A   Overcast
2:55 AM 24.8 °F 20.5 °F 19.4 °F 80% 29.90 in 3.0 mi NW 3.5 mph - N/A   Overcast
3:15 AM 24.8 °F - 19.4 °F 80% 29.90 in 4.0 mi Calm Calm - N/A   Overcast
3:35 AM 24.8 °F - 19.4 °F 80% 29.90 in 5.0 mi Calm Calm - N/A   Overcast
3:56 AM 24.8 °F - 19.4 °F 80% 29.90 in 4.0 mi Calm Calm - N/A   Overcast
4:15 AM 24.8 °F - 19.4 °F 80% 29.91 in 4.0 mi Calm Calm - N/A   Overcast
4:35 AM 24.8 °F - 19.4 °F 80% 29.91 in 4.0 mi Calm Calm - N/A   Overcast
4:55 AM 24.8 °F - 19.4 °F 80% 29.93 in 4.0 mi Calm Calm - N/A   Overcast
5:15 AM 24.8 °F - 19.4 °F 80% 29.93 in 4.0 mi Calm Calm - N/A   Overcast
5:35 AM 24.8 °F - 19.4 °F 80% 29.94 in 3.0 mi Calm Calm - N/A   Overcast
5:45 AM 26.6 °F - 19.4 °F 74% 29.94 in 2.0 mi Calm Calm - N/A   Overcast
6:55 AM 26.6 °F - 21.2 °F 80% 29.97 in 2.0 mi Calm Calm - N/A   Overcast
7:25 AM 26.6 °F 21.2 °F 19.4 °F 74% 29.98 in 3.0 mi NW 4.6 mph - N/A   Overcast
7:55 AM 26.6 °F 19.1 °F 21.2 °F 80% 29.99 in 4.0 mi NW 6.9 mph - N/A   Mostly Cloudy
8:27 AM 26.6 °F 22.6 °F 21.2 °F 80% 30.01 in 4.0 mi WNW 3.5 mph - N/A   Scattered Clouds
8:45 AM 26.6 °F 22.6 °F 21.2 °F 80% 30.02 in 5.0 mi NW 3.5 mph - N/A   Scattered Clouds
9:45 AM 28.4 °F 21.2 °F 21.2 °F 74% 30.02 in 6.0 mi WNW 6.9 mph - N/A   Partly Cloudy
10:45 AM 32.0 °F 25.6 °F 21.2 °F 64% 30.05 in 10.0 mi WNW 6.9 mph - N/A   Scattered Clouds
11:45 AM 33.8 °F 27.7 °F 19.4 °F 56% 30.03 in 10.0 mi WNW 6.9 mph - N/A   Mostly Cloudy
12:45 PM 33.8 °F 26.4 °F 17.6 °F 52% 30.04 in 10.0 mi WNW 9.2 mph 19.6 mph N/A   Overcast
1:55 PM 33.8 °F 27.0 °F 17.6 °F 52% 30.05 in 10.0 mi NW 8.1 mph 18.4 mph N/A   Overcast
2:45 PM 35.6 °F 27.5 °F 19.4 °F 52% 30.06 in 10.0 mi WNW 11.5 mph 18.4 mph N/A   Mostly Cloudy
3:45 PM 35.6 °F 27.5 °F 17.6 °F 48% 30.08 in 10.0 mi WNW 11.5 mph 20.7 mph N/A   Mostly Cloudy
4:45 PM 35.6 °F 27.5 °F 14.0 °F 41% 30.11 in 10.0 mi WNW 11.5 mph 20.7 mph N/A   Partly Cloudy
5:45 PM 33.8 °F 27.7 °F 12.2 °F 41% 30.15 in 10.0 mi NW 6.9 mph - N/A   Clear
6:45 PM 30.2 °F 24.3 °F 10.4 °F 44% 30.20 in 10.0 mi NNW 5.8 mph - N/A   Clear
7:35 PM 28.4 °F 19.1 °F 8.6 °F 43% 30.24 in 10.0 mi NNW 10.4 mph - N/A   Clear
8:45 PM 28.4 °F 19.7 °F 5.0 °F 37% 30.26 in 10.0 mi NNW 9.2 mph - N/A   Clear
8:55 PM 26.6 °F 22.6 °F 5.0 °F 40% 30.27 in 10.0 mi NNW 3.5 mph - N/A   Clear
9:15 PM 26.6 °F 21.2 °F 3.2 °F 37% 30.28 in 10.0 mi NNW 4.6 mph - N/A   Clear
9:35 PM 26.6 °F 18.2 °F 1.4 °F 34% 30.28 in 10.0 mi North 8.1 mph - N/A   Clear
9:55 PM 24.8 °F 16.9 °F 3.2 °F 40% 30.28 in 10.0 mi North 6.9 mph - N/A   Clear
10:15 PM 24.8 °F 16.1 °F 3.2 °F 40% 30.29 in 10.0 mi NNW 8.1 mph - N/A   Clear
10:35 PM 24.8 °F 16.9 °F -0.4 °F 34% 30.30 in 10.0 mi NNW 6.9 mph - N/A   Clear
10:55 PM 24.8 °F - -0.4 °F 34% 30.31 in 10.0 mi Calm Calm - N/A   Clear
11:15 PM 21.2 °F 12.6 °F -0.4 °F 39% 30.31 in 10.0 mi NNW 6.9 mph - N/A   Clear
11:35 PM 23.0 °F 15.8 °F -0.4 °F 36% 30.31 in 10.0 mi North 5.8 mph - N/A   Clear
11:55 PM 23.0 °F 13.9 °F -2.2 °F 33% 30.31 in 10.0 mi NNW 8.1 mph - N/A   Clear